TimeCST,TemperatureF,Dew PointF,Humidity,Sea Level PressureIn,VisibilityMPH,Wind Direction,Wind SpeedMPH,Gust SpeedMPH,PrecipitationIn,Events,Conditions,WindDirDegrees,DateUTC
12:15 AM,32.0,27.3,83,30.12,10.0,NE,8.1,-,N/A,,Clear,40,2012-11-26 06:15:00
12:35 AM,31.3,27.1,85,30.12,10.0,NNE,5.8,-,N/A,,Clear,30,2012-11-26 06:35:00
12:55 AM,30.7,26.8,85,30.12,10.0,NE,5.8,-,N/A,,Clear,40,2012-11-26 06:55:00
1:15 AM,31.1,27.3,86,30.12,10.0,NNE,8.1,-,N/A,,Clear,30,2012-11-26 07:15:00
1:35 AM,31.8,27.5,84,30.12,10.0,NE,8.1,-,N/A,,Clear,40,2012-11-26 07:35:00
1:55 AM,31.8,27.9,85,30.12,10.0,NE,6.9,-,N/A,,Clear,40,2012-11-26 07:55:00
2:15 AM,32.0,27.5,83,30.12,10.0,NE,8.1,-,N/A,,Clear,50,2012-11-26 08:15:00
2:35 AM,32.0,27.5,83,30.13,10.0,NE,8.1,-,N/A,,Clear,50,2012-11-26 08:35:00
2:55 AM,32.2,27.3,82,30.14,10.0,NE,9.2,-,N/A,,Clear,40,2012-11-26 08:55:00
3:15 AM,32.4,27.3,82,30.14,10.0,ENE,5.8,-,N/A,,Clear,60,2012-11-26 09:15:00
3:35 AM,32.4,27.3,82,30.14,10.0,NE,6.9,-,N/A,,Clear,40,2012-11-26 09:35:00
3:55 AM,32.5,27.0,80,30.15,10.0,NE,6.9,-,N/A,,Clear,50,2012-11-26 09:55:00
4:15 AM,32.2,27.0,81,30.15,10.0,NE,8.1,-,N/A,,Clear,50,2012-11-26 10:15:00
4:35 AM,32.4,26.6,79,30.15,10.0,NE,6.9,-,N/A,,Scattered Clouds,50,2012-11-26 10:35:00
4:55 AM,32.0,26.4,80,30.16,10.0,NE,6.9,-,N/A,,Scattered Clouds,50,2012-11-26 10:55:00
5:15 AM,32.0,26.4,80,30.17,10.0,NE,5.8,-,N/A,,Clear,50,2012-11-26 11:15:00
5:35 AM,32.0,26.6,80,30.18,10.0,NNE,4.6,-,N/A,,Mostly Cloudy,30,2012-11-26 11:35:00
5:55 AM,33.4,26.6,76,30.19,10.0,NNE,6.9,-,N/A,,Overcast,20,2012-11-26 11:55:00
6:15 AM,34.0,26.8,75,30.20,10.0,NNE,8.1,-,N/A,,Overcast,20,2012-11-26 12:15:00
6:35 AM,34.3,26.6,73,30.21,10.0,NNE,10.4,16.1,N/A,,Overcast,30,2012-11-26 12:35:00
6:55 AM,34.3,26.6,73,30.24,10.0,NNE,8.1,-,N/A,,Overcast,20,2012-11-26 12:55:00
7:15 AM,34.2,26.4,73,30.25,10.0,NNE,11.5,-,N/A,,Overcast,30,2012-11-26 13:15:00
7:35 AM,34.3,26.2,72,30.26,10.0,NNE,9.2,-,N/A,,Overcast,30,2012-11-26 13:35:00
7:55 AM,34.0,26.1,73,30.27,10.0,NNE,13.8,18.4,N/A,,Overcast,30,2012-11-26 13:55:00
8:15 AM,34.2,26.1,72,30.29,10.0,NNE,12.7,18.4,N/A,,Overcast,30,2012-11-26 14:15:00
8:35 AM,34.2,26.2,73,30.30,10.0,NNE,16.1,19.6,N/A,,Overcast,30,2012-11-26 14:35:00
8:55 AM,34.3,25.7,71,30.32,10.0,NNE,11.5,19.6,N/A,,Overcast,30,2012-11-26 14:55:00
9:15 AM,34.7,25.0,68,30.33,10.0,NNE,17.3,21.9,N/A,,Overcast,30,2012-11-26 15:15:00
9:35 AM,34.7,25.0,68,30.35,10.0,NNE,12.7,-,N/A,,Overcast,30,2012-11-26 15:35:00
9:55 AM,35.1,26.1,70,30.35,10.0,NNE,15.0,-,N/A,,Overcast,30,2012-11-26 15:55:00
10:15 AM,35.6,26.6,70,30.36,10.0,NNE,16.1,-,N/A,,Overcast,30,2012-11-26 16:15:00
10:35 AM,35.8,27.3,71,30.38,10.0,NNE,13.8,20.7,N/A,,Mostly Cloudy,20,2012-11-26 16:35:00
10:55 AM,34.7,27.5,75,30.39,10.0,NNE,13.8,-,N/A,,Overcast,20,2012-11-26 16:55:00
11:15 AM,34.5,27.9,77,30.40,10.0,North,15.0,-,N/A,,Overcast,10,2012-11-26 17:15:00
11:35 AM,34.5,27.9,77,30.40,10.0,NNE,15.0,23.0,N/A,,Overcast,20,2012-11-26 17:35:00
11:55 AM,33.8,27.9,79,30.40,10.0,NNE,13.8,-,N/A,,Overcast,20,2012-11-26 17:55:00
12:15 PM,33.4,27.3,78,30.40,10.0,North,16.1,19.6,N/A,,Overcast,10,2012-11-26 18:15:00
12:35 PM,33.1,27.1,79,30.40,10.0,North,12.7,19.6,N/A,,Overcast,10,2012-11-26 18:35:00
12:55 PM,32.5,27.0,80,30.41,10.0,North,11.5,19.6,N/A,,Overcast,10,2012-11-26 18:55:00
1:15 PM,32.4,26.4,79,30.41,10.0,North,10.4,21.9,N/A,,Overcast,360,2012-11-26 19:15:00
1:35 PM,32.4,26.4,79,30.40,10.0,NNE,13.8,-,N/A,,Mostly Cloudy,30,2012-11-26 19:35:00
1:55 PM,32.9,25.9,75,30.39,10.0,NNE,10.4,-,N/A,,Mostly Cloudy,20,2012-11-26 19:55:00
2:15 PM,33.8,25.0,70,30.39,10.0,North,15.0,-,N/A,,Overcast,350,2012-11-26 20:15:00
2:35 PM,34.0,23.7,66,30.39,10.0,NNE,12.7,-,N/A,,Mostly Cloudy,20,2012-11-26 20:35:00
2:55 PM,33.6,23.0,65,30.39,10.0,NNE,13.8,18.4,N/A,,Scattered Clouds,20,2012-11-26 20:55:00
3:15 PM,33.8,21.6,61,30.40,10.0,North,9.2,-,N/A,,Clear,350,2012-11-26 21:15:00
3:35 PM,33.8,20.1,57,30.40,10.0,North,10.4,-,N/A,,Clear,360,2012-11-26 21:35:00
3:55 PM,33.4,19.0,56,30.40,10.0,North,10.4,-,N/A,,Clear,360,2012-11-26 21:55:00
4:15 PM,32.5,17.6,54,30.41,10.0,North,10.4,-,N/A,,Clear,360,2012-11-26 22:15:00
4:35 PM,32.0,17.6,55,30.41,10.0,North,9.2,-,N/A,,Clear,10,2012-11-26 22:35:00
4:55 PM,30.6,16.2,55,30.41,10.0,North,9.2,-,N/A,,Clear,360,2012-11-26 22:55:00
5:15 PM,29.7,15.8,56,30.41,10.0,North,8.1,-,N/A,,Clear,360,2012-11-26 23:15:00
5:35 PM,28.4,16.2,60,30.42,10.0,North,4.6,-,N/A,,Clear,360,2012-11-26 23:35:00
5:55 PM,27.0,15.8,63,30.42,10.0,North,4.6,-,N/A,,Clear,360,2012-11-26 23:55:00
6:15 PM,26.1,15.8,65,30.43,10.0,North,3.5,-,N/A,,Clear,360,2012-11-27 00:15:00
6:35 PM,25.5,15.4,66,30.44,10.0,Calm,Calm,-,N/A,,Clear,0,2012-11-27 00:35:00
6:55 PM,24.1,15.4,70,30.43,10.0,North,4.6,-,N/A,,Clear,360,2012-11-27 00:55:00
7:15 PM,22.8,14.9,72,30.44,10.0,NNW,3.5,-,N/A,,Clear,340,2012-11-27 01:15:00
7:35 PM,21.7,14.7,74,30.45,10.0,Calm,Calm,-,N/A,,Clear,0,2012-11-27 01:35:00
7:55 PM,20.8,14.5,77,30.45,10.0,Calm,Calm,-,N/A,,Clear,0,2012-11-27 01:55:00
8:15 PM,19.4,13.6,78,30.45,10.0,Calm,Calm,-,N/A,,Clear,0,2012-11-27 02:15:00
8:35 PM,18.5,13.8,82,30.45,10.0,Calm,Calm,-,N/A,,Clear,0,2012-11-27 02:35:00
8:55 PM,17.6,13.8,85,30.45,10.0,West,3.5,-,N/A,,Clear,270,2012-11-27 02:55:00
9:15 PM,17.8,13.6,84,30.46,10.0,Calm,Calm,-,N/A,,Clear,0,2012-11-27 03:15:00
9:35 PM,16.7,13.1,86,30.46,10.0,Calm,Calm,-,N/A,,Clear,0,2012-11-27 03:35:00
9:55 PM,16.5,13.1,86,30.46,10.0,Calm,Calm,-,N/A,,Clear,0,2012-11-27 03:55:00
10:15 PM,16.0,12.7,87,30.46,10.0,Calm,Calm,-,N/A,,Clear,0,2012-11-27 04:15:00
10:55 PM,13.8,10.9,88,30.46,10.0,Calm,Calm,-,N/A,,Clear,0,2012-11-27 04:55:00
11:15 PM,14.0,11.1,88,30.45,10.0,Calm,Calm,-,N/A,,Clear,0,2012-11-27 05:15:00
11:35 PM,13.5,10.9,90,30.45,10.0,Calm,Calm,-,N/A,,Clear,0,2012-11-27 05:35:00
11:55 PM,12.2,8.4,85,30.45,10.0,Calm,Calm,-,N/A,,Clear,0,2012-11-27 05:55:00